This demonstration page uses our WeatherBlox Daily Observations layout. Learn more.

Left ArrowRight Arrow

36.17497, -115.13722

Hourly Observations for July 1, 2017

Temp ( °F °C ) Dew Point ( °F °C ) Humidity (%) Winds ( mph kmh ) Pressure ( in mb ) Visibility ( mi km ) Precip ( " mm )
12:53 am 00:53 Clear 86 30 30 -1.1 13 13 SSE 3 6 29.73 1007 10 16 N/A
1:53 am 01:53 Clear 84 28.9 28 -2.2 13 13 NW 8 13 29.72 1006 10 16 N/A
2:53 am 02:53 Clear 83 28.3 31 -0.6 15 15 NNW 5 7 29.72 1006 10 16 N/A
3:53 am 03:53 Clear 80 26.7 29 -1.7 15 15 NNW 6 9 29.72 1007 10 16 N/A
4:53 am 04:53 Clear 80 26.7 25 -3.9 13 13 NNW 7 11 29.74 1007 10 16 N/A
5:53 am 05:53 Sunny 79 26.1 26 -3.3 14 14 NW 5 7 29.76 1008 10 16 N/A
6:53 am 06:53 Sunny 83 28.3 30 -1.1 15 15 NNW 3 6 29.77 1008 10 16 N/A
7:53 am 07:53 Sunny 89 31.7 30 -1.1 12 12 NNE 6 9 29.78 1009 10 16 N/A
8:53 am 08:53 Sunny 92 33.3 24 -4.4 8 8 SE 7 11 29.79 1009 10 16 N/A
9:53 am 09:53 Sunny 95 35 23 -5 7 7 ESE 7 11 29.79 1009 10 16 N/A
10:53 am 10:53 Sunny 98 36.7 22 -5.6 6 6 SE 7 11 29.79 1009 10 16 N/A
11:53 am 11:53 Sunny 101 38.3 21 -6.1 6 6 VRB 3 6 29.78 1008 10 16 N/A
12:53 pm 12:53 Sunny 103 39.4 19 -7.2 5 5 SSE 6 9 29.75 1008 10 16 N/A
1:53 pm 13:53 Sunny 105 40.6 20 -6.7 5 5 SSW 3 6 29.72 1007 10 16 N/A
2:53 pm 14:53 Sunny 107 41.7 21 -6.1 5 5 SSE 7 11 29.70 1006 10 16 N/A
3:53 pm 15:53 Sunny 109 42.8 20 -6.7 4 4 ESE 15 24 29.65 1004 10 16 N/A
4:53 pm 16:53 Sunny 108 42.2 21 -6.1 4 4 SSE 20 31 29.65 1004 10 16 N/A
5:53 pm 17:53 Sunny 107 41.7 21 -6.1 5 5 S 21 33 29.65 1004 10 16 N/A
6:53 pm 18:53 Sunny 105 40.6 21 -6.1 5 5 S 21 33 29.66 1005 10 16 N/A
7:53 pm 19:53 Sunny 102 38.9 21 -6.1 5 5 SSW 12 19 29.68 1005 10 16 N/A
8:53 pm 20:53 Clear 100 37.8 18 -7.8 5 5 SSW 13 20 29.70 1006 10 16 N/A
9:53 pm 21:53 Clear 97 36.1 12 -11.1 4 4 SSW 12 19 29.73 1007 10 16 N/A
10:53 pm 22:53 Clear 95 35 13 -10.6 5 5 SSW 10 17 29.74 1007 10 16 N/A
11:53 pm 23:53 Clear 92 33.3 17 -8.3 6 6 S 8 13 29.74 1007 10 16 N/A

Powered by AerisWeather